Weather reports worldwide

Advertisment
Ferrara, Italy (16138): temperature & dewpoint: 19.09.2018 12:00:00 - 25.09.2018 12:00:00 (CEST)Ferrara, Italy (16138): wind speed: 19.09.2018 12:00:00 - 25.09.2018 12:00:00 (CEST)Ferrara, Italy (16138): wind direction: 19.09.2018 12:00:00 - 25.09.2018 12:00:00 (CEST)Ferrara, Italy (16138): reduced air pressure: 19.09.2018 12:00:00 - 25.09.2018 12:00:00 (CEST)Ferrara, Italy (16138): visibility: 19.09.2018 12:00:00 - 25.09.2018 12:00:00 (CEST)
Date & Time tt [°C] td [°C] ff [km/h] ff [kn] dd ppp [hPa] vv [km]
25.09.2018 12:00:00 - - - - - - -
25.09.2018 11:00:00 19,2 6,7 0 0 N 1031,9 10
25.09.2018 10:00:00 16,0 7,0 - - - - 10
25.09.2018 09:00:00 12,0 6,0 8 4 NNW - 10
25.09.2018 08:00:00 10,2 5,0 5 3 NNE 1030,3 20
25.09.2018 07:00:00 - - - - - - -
25.09.2018 06:00:00 - - - - - - -
25.09.2018 05:00:00 - - - - - - -
25.09.2018 04:00:00 - - - - - - -
25.09.2018 03:00:00 - - - - - - -
25.09.2018 02:00:00 - - - - - - -
25.09.2018 01:00:00 - - - - - - -
25.09.2018 00:00:00 - - - - - - -
24.09.2018 23:00:00 - - - - - - -
24.09.2018 22:00:00 - - - - - - -
24.09.2018 21:00:00 - - - - - - -
24.09.2018 20:00:00 18,8 10,9 0 0 N 1023,5 20
24.09.2018 19:00:00 20,0 11,0 - - - - 10
24.09.2018 18:00:00 21,0 12,0 - - - - 10
24.09.2018 17:00:00 21,8 12,4 0 0 N 1021,7 15
24.09.2018 16:00:00 22,0 13,0 - - - - 10
24.09.2018 15:00:00 22,0 13,0 - - - - 10
24.09.2018 14:00:00 23,2 13,7 0 0 N 1018,9 12
24.09.2018 13:00:00 24,0 15,0 - - - - 10
24.09.2018 12:00:00 24,0 19,0 - - - - 10
24.09.2018 11:00:00 24,0 19,9 0 0 N 1015,2 10
24.09.2018 10:00:00 21,0 18,0 - - - - 8
24.09.2018 09:00:00 20,0 17,0 - - - - 8
24.09.2018 08:00:00 19,4 16,2 0 0 N 1011,4 8
24.09.2018 07:00:00 - - - - - - -
24.09.2018 06:00:00 - - - - - - -
24.09.2018 05:00:00 - - - - - - -
24.09.2018 04:00:00 - - - - - - -
24.09.2018 03:00:00 - - - - - - -
24.09.2018 02:00:00 - - - - - - -
24.09.2018 01:00:00 - - - - - - -
24.09.2018 00:00:00 - - - - - - -
23.09.2018 23:00:00 - - - - - - -
23.09.2018 22:00:00 - - - - - - -
23.09.2018 21:00:00 - - - - - - -
23.09.2018 20:00:00 24,0 19,3 0 0 N 1014,0 10
23.09.2018 19:00:00 26,0 19,0 - - - - 10
23.09.2018 18:00:00 28,0 19,0 - - - - 10
23.09.2018 17:00:00 28,4 19,1 0 0 N 1015,2 20
23.09.2018 16:00:00 28,0 19,0 - - - - 10
23.09.2018 15:00:00 29,0 20,0 - - - - 10
23.09.2018 14:00:00 28,0 19,5 0 0 N 1017,6 20
23.09.2018 13:00:00 27,0 19,0 - - - - 10
23.09.2018 12:00:00 25,0 19,0 - - - - 10
23.09.2018 11:00:00 22,6 17,1 0 0 N 1018,7 20
23.09.2018 10:00:00 19,0 15,0 - - - - 10
23.09.2018 09:00:00 18,0 14,0 - - - - 10
23.09.2018 08:00:00 17,0 13,7 0 0 N 1018,0 10
23.09.2018 07:00:00 - - - - - - -
23.09.2018 06:00:00 - - - - - - -
23.09.2018 05:00:00 - - - - - - -
23.09.2018 04:00:00 - - - - - - -
23.09.2018 03:00:00 - - - - - - -
23.09.2018 02:00:00 - - - - - - -
23.09.2018 01:00:00 - - - - - - -
23.09.2018 00:00:00 - - - - - - -
22.09.2018 23:00:00 - - - - - - -
22.09.2018 22:00:00 - - - - - - -
22.09.2018 21:00:00 - - - - - - -
22.09.2018 20:00:00 25,4 17,1 0 0 N 1016,0 10
22.09.2018 19:00:00 27,0 17,0 - - - - 10
22.09.2018 18:00:00 28,0 17,0 - - - - 10
22.09.2018 17:00:00 29,4 16,9 0 0 N 1015,6 10
22.09.2018 16:00:00 30,0 17,0 9 5 S - 10
22.09.2018 15:00:00 30,0 17,0 - - - - 10
22.09.2018 14:00:00 29,2 18,7 0 0 N 1016,0 10
22.09.2018 13:00:00 28,0 19,0 - - - - 10
22.09.2018 12:00:00 26,0 20,0 - - - - 10
22.09.2018 11:00:00 24,0 17,7 0 0 N 1015,9 10
22.09.2018 10:00:00 21,0 16,0 - - - - 10
22.09.2018 09:00:00 19,0 15,0 - - - - 10
22.09.2018 08:00:00 17,4 14,9 0 0 N 1014,6 10
22.09.2018 07:00:00 - - - - - - -
22.09.2018 06:00:00 - - - - - - -
22.09.2018 05:00:00 - - - - - - -
22.09.2018 04:00:00 - - - - - - -
22.09.2018 03:00:00 - - - - - - -
22.09.2018 02:00:00 - - - - - - -
22.09.2018 01:00:00 - - - - - - -
22.09.2018 00:00:00 - - - - - - -
21.09.2018 23:00:00 - - - - - - -
21.09.2018 22:00:00 - - - - - - -
21.09.2018 21:00:00 - - - - - - -
21.09.2018 20:00:00 26,0 16,8 0 0 N 1013,6 10
21.09.2018 19:00:00 28,0 17,0 - - - - 10
21.09.2018 18:00:00 30,0 16,0 - - - - 10
21.09.2018 17:00:00 30,0 16,8 0 0 N 1014,3 10
21.09.2018 16:00:00 30,0 16,0 - - - - 10
21.09.2018 15:00:00 31,0 17,0 - - - - 10
21.09.2018 14:00:00 30,6 17,7 0 0 N 1015,6 10
21.09.2018 13:00:00 29,0 18,0 4 2 SSE - 10
21.09.2018 12:00:00 27,0 19,0 2 1 S - 8
21.09.2018 11:00:00 25,0 19,8 0 0 N 1016,3 7
21.09.2018 10:00:00 20,0 17,0 - - - - 6
21.09.2018 09:00:00 18,0 16,0 - - - - 6
21.09.2018 08:00:00 16,0 14,7 0 0 N 1016,4 5
21.09.2018 07:00:00 - - - - - - -
21.09.2018 06:00:00 - - - - - - -
21.09.2018 05:00:00 - - - - - - -
21.09.2018 04:00:00 - - - - - - -
21.09.2018 03:00:00 - - - - - - -
21.09.2018 02:00:00 - - - - - - -
21.09.2018 01:00:00 - - - - - - -
21.09.2018 00:00:00 - - - - - - -
20.09.2018 23:00:00 - - - - - - -
20.09.2018 22:00:00 - - - - - - -
20.09.2018 21:00:00 - - - - - - -
20.09.2018 20:00:00 25,4 16,5 0 0 N 1017,0 12
20.09.2018 19:00:00 27,0 16,0 - - - - 10
20.09.2018 18:00:00 29,0 16,0 - - - - 10
20.09.2018 17:00:00 29,2 16,7 0 0 N 1017,4 10
20.09.2018 16:00:00 30,0 17,0 8 4 ENE - 10
20.09.2018 15:00:00 30,0 17,0 5 3 ENE - 10
20.09.2018 14:00:00 29,2 18,3 4 2 NNE 1018,8 8
20.09.2018 13:00:00 28,0 20,0 5 3 N - 6
20.09.2018 12:00:00 26,0 20,0 - - - - 4,0
20.09.2018 11:00:00 23,8 20,1 0 0 N 1019,9 3,5
20.09.2018 10:00:00 20,0 19,0 - - - - 1,5
20.09.2018 09:00:00 19,0 18,0 - - - - 0,7
20.09.2018 08:00:00 17,8 16,7 0 0 N 1019,5 0,4
20.09.2018 07:00:00 - - - - - - -
20.09.2018 06:00:00 - - - - - - -
20.09.2018 05:00:00 - - - - - - -
20.09.2018 04:00:00 - - - - - - -
20.09.2018 03:00:00 - - - - - - -
20.09.2018 02:00:00 - - - - - - -
20.09.2018 01:00:00 - - - - - - -
20.09.2018 00:00:00 - - - - - - -
19.09.2018 23:00:00 - - - - - - -
19.09.2018 22:00:00 - - - - - - -
19.09.2018 21:00:00 - - - - - - -
19.09.2018 20:00:00 25,4 18,8 0 0 N 1018,7 8
19.09.2018 19:00:00 27,0 19,0 - - - - 8
19.09.2018 18:00:00 28,0 19,0 - - - - 8
19.09.2018 17:00:00 28,4 18,8 0 0 N 1018,7 8
19.09.2018 16:00:00 28,0 19,0 4 2 NNE - 8
19.09.2018 15:00:00 29,0 19,0 4 2 SSW - 6
19.09.2018 14:00:00 28,4 21,2 4 2 NNW 1019,6 6
19.09.2018 13:00:00 27,0 21,0 4 2 WNW - 5
19.09.2018 12:00:00 25,0 20,0 4 2 WSW - 5

tt = temperature
td = dewpoint
ff = wind speed
dd = wind direction
ppp = reduced air pressure
vv = visibility

Next stations